VIV4319 MMCU-MMMY

Flight info

Callsign VIV4319
Flight time 0h 29m
Altitude 37000
Route CUU6B CUU UJ2 NOTAL UJ45 URTUS DCT TASNA DCT MY604 DCT MTY
Aircraft A21N/M-SDE3FGHIRWY/LB1

Departure

Time 2026-05-04 06:22
Airport General Roberto Fierro Villalobos International Airport (MMCU)

Arrival

Time 2026-05-04 06:51
Airport Monterrey International Airport (MMMY)
Time Latitude Longitude Altitude Speed Heading
2026-05-04 06:01 28.70340 -105.96835 4427 ft 0 kts 280°
2026-05-04 06:11 28.70332 -105.96814 4427 ft 2 kts 313°
2026-05-04 06:11 28.70320 -105.96803 4427 ft 2 kts 334°
2026-05-04 06:13 28.70284 -105.96802 4428 ft 0 kts 11°
2026-05-04 06:17 28.70318 -105.96796 4427 ft 11 kts 10°
2026-05-04 06:17 28.70418 -105.96761 4424 ft 15 kts 56°
2026-05-04 06:17 28.70438 -105.96659 4423 ft 13 kts 79°
2026-05-04 06:17 28.70455 -105.96555 4422 ft 13 kts 67°
2026-05-04 06:18 28.70519 -105.96474 4420 ft 14 kts 41°
2026-05-04 06:18 28.70601 -105.96390 4418 ft 16 kts 41°
2026-05-04 06:18 28.70689 -105.96301 4415 ft 17 kts 41°
2026-05-04 06:20 28.71406 -105.96107 4397 ft 7 kts 195°
2026-05-04 06:20 28.71359 -105.96121 4399 ft 6 kts 192°
2026-05-04 06:21 28.69582 -105.96512 4449 ft 167 kts 191°
2026-05-04 06:21 28.68378 -105.96780 4763 ft 183 kts 191°
2026-05-04 06:22 28.67131 -105.97028 5458 ft 181 kts 191°
2026-05-04 06:22 28.65907 -105.97235 6149 ft 173 kts 191°
2026-05-04 06:25 28.56169 -105.59942 15670 ft 325 kts 95°
2026-05-04 06:25 28.55668 -105.54836 16556 ft 331 kts 95°
2026-05-04 06:26 28.54562 -105.49708 17378 ft 339 kts 112°
2026-05-04 06:26 28.52688 -105.44761 18260 ft 344 kts 115°
2026-05-04 06:26 28.50738 -105.39768 18596 ft 375 kts 115°
2026-05-04 06:26 28.48575 -105.34090 19127 ft 404 kts 115°
2026-05-04 06:27 28.39101 -105.08968 22417 ft 455 kts 114°
2026-05-04 06:28 28.36584 -105.02333 23350 ft 463 kts 114°
2026-05-04 06:28 28.34039 -104.95616 24297 ft 469 kts 114°
2026-05-04 06:28 28.31491 -104.88908 25255 ft 472 kts 114°
2026-05-04 06:28 28.28875 -104.82040 26122 ft 478 kts 114°
2026-05-04 06:29 28.25354 -104.72817 27235 ft 485 kts 114°
2026-05-04 06:29 28.21325 -104.62322 28410 ft 493 kts 114°
2026-05-04 06:29 28.17012 -104.51098 29568 ft 500 kts 114°
2026-05-04 06:29 28.12802 -104.40157 30517 ft 509 kts 114°
2026-05-04 06:30 28.08496 -104.29012 31398 ft 517 kts 114°
2026-05-04 06:30 28.04792 -104.19439 32343 ft 517 kts 113°
2026-05-04 06:30 28.00316 -104.07906 33382 ft 517 kts 113°
2026-05-04 06:30 27.96133 -103.97164 34303 ft 518 kts 112°
2026-05-04 06:31 27.91828 -103.86131 35431 ft 513 kts 112°
2026-05-04 06:31 27.87721 -103.75639 36249 ft 511 kts 112°
2026-05-04 06:31 27.83601 -103.65138 36889 ft 511 kts 112°
2026-05-04 06:31 27.79459 -103.54617 37180 ft 515 kts 111°
2026-05-04 06:33 27.45709 -102.69873 37191 ft 514 kts 112°
2026-05-04 06:34 27.36925 -102.48111 37192 ft 514 kts 112°
2026-05-04 06:34 27.28387 -102.27082 37143 ft 513 kts 114°
2026-05-04 06:36 26.94194 -101.43169 32496 ft 512 kts 109°
2026-05-04 06:37 26.90681 -101.32292 30593 ft 512 kts 108°
2026-05-04 06:37 26.87585 -101.22742 29455 ft 496 kts 109°
2026-05-04 06:37 26.84364 -101.12894 28213 ft 484 kts 109°
2026-05-04 06:37 26.81242 -101.03371 26916 ft 476 kts 109°
2026-05-04 06:38 26.78249 -100.94257 25632 ft 468 kts 109°
2026-05-04 06:38 26.75228 -100.85077 24373 ft 460 kts 110°
2026-05-04 06:40 26.52772 -100.21544 15250 ft 395 kts 148°
2026-05-04 06:40 26.45634 -100.20046 14105 ft 366 kts 184°
2026-05-04 06:40 26.38189 -100.19432 12895 ft 360 kts 178°
2026-05-04 06:40 26.30876 -100.18402 11673 ft 352 kts 176°
2026-05-04 06:41 26.23837 -100.17350 10458 ft 343 kts 175°
2026-05-04 06:41 26.17340 -100.16367 9924 ft 290 kts 175°
2026-05-04 06:41 26.11373 -100.15538 8844 ft 280 kts 183°
2026-05-04 06:41 26.08509 -100.16653 8261 ft 271 kts 217°
2026-05-04 06:42 26.07006 -100.17932 7935 ft 272 kts 218°
2026-05-04 06:42 26.05528 -100.19205 7594 ft 270 kts 217°
2026-05-04 06:42 26.04029 -100.20478 7248 ft 268 kts 216°
2026-05-04 06:44 25.93726 -100.28970 4943 ft 246 kts 213°
2026-05-04 06:44 25.92416 -100.30043 4872 ft 224 kts 213°
2026-05-04 06:44 25.91147 -100.30887 4801 ft 199 kts 191°
2026-05-04 06:45 25.89847 -100.30922 4822 ft 186 kts 163°
2026-05-04 06:45 25.88702 -100.30284 4574 ft 181 kts 137°
2026-05-04 06:45 25.87958 -100.29215 4462 ft 169 kts 121°
2026-05-04 06:45 25.87374 -100.28140 4332 ft 154 kts 120°
2026-05-04 06:46 25.86845 -100.27149 4245 ft 149 kts 120°
2026-05-04 06:46 25.86307 -100.26148 4175 ft 150 kts 120°
2026-05-04 06:46 25.85766 -100.25150 4081 ft 150 kts 120°
2026-05-04 06:46 25.85227 -100.24163 3869 ft 149 kts 120°
2026-05-04 06:48 25.81686 -100.17699 2521 ft 137 kts 121°
2026-05-04 06:48 25.81185 -100.16784 2336 ft 137 kts 121°
2026-05-04 06:49 25.80691 -100.15884 2148 ft 136 kts 121°
2026-05-04 06:50 25.77561 -100.10165 1283 ft 58 kts 121°
2026-05-04 06:51 25.77368 -100.09810 1283 ft 40 kts 120°
2026-05-04 06:51 25.77260 -100.09695 1283 ft 15 kts 209°
2026-05-04 06:51 25.77168 -100.09759 1283 ft 18 kts 227°
2026-05-04 06:51 25.77163 -100.09834 1283 ft 4 kts 291°
2026-05-04 06:52 25.77192 -100.09896 1283 ft 13 kts 300°
2026-05-04 06:52 25.77259 -100.10014 1283 ft 22 kts 300°
2026-05-04 06:52 25.77352 -100.10186 1283 ft 27 kts 301°
2026-05-04 06:52 25.77453 -100.10368 1283 ft 29 kts 302°
2026-05-04 06:53 25.77573 -100.10587 1283 ft 34 kts 302°
2026-05-04 06:53 25.77692 -100.10806 1283 ft 31 kts 303°
2026-05-04 06:53 25.77803 -100.11004 1283 ft 28 kts 301°
2026-05-04 06:53 25.77905 -100.11189 1283 ft 27 kts 300°
2026-05-04 06:54 25.77999 -100.11359 1284 ft 16 kts 302°
2026-05-04 06:54 25.78049 -100.11455 1284 ft 12 kts 288°
2026-05-04 06:54 25.78004 -100.11514 1284 ft 11 kts 212°
2026-05-04 06:54 25.77931 -100.11520 1283 ft 11 kts 167°
2026-05-04 06:55 25.77919 -100.11517 1284 ft 0 kts 167°